Probability
0 0 0 0 0 0 0 0 0 0 0 0 0 0 0 0 0 0 0 0 0 0 0 0 0 0 0 0 0 0 0 0 0 0 0 0 0 0 0 0 0 0 0
0 0 0 0 0 0 0 0 0 0 0 0 0 0 0 0 0 0 0 0 0 0 0 0 0 0 0 0 0 0 0 0 0 0 0 0 0 0 0 0 0 0 0
0 0 0 0 0 0 0 0 0 0 0 0 0 0 0 0 0 0 0 0 0 0 0 0 0 0 0 0 0 0 1 1 0 0 0 0 0 0 0 0 0 0 0
0 0 0 0 0 0 0 0 0 0 0 0 0 0 0 0 0 0 0 0 0 0 0 0 0 1 1 1 2 2 2 2 1 0 0 0 0 0 0 0 0 0 0
0 0 0 0 0 0 0 0 0 0 0 0 1 1 1 0 0 0 0 0 0 0 0 0 0 1 2 2 2 2 3 3 2 1 0 0 0 0 0 0 0 0 0
0 0 0 0 0 0 0 0 0 0 0 0 1 2 1 0 0 0 0 0 0 0 0 0 0 1 1 1 1 1 2 2 2 1 0 0 0 0 0 0 0 0 0
0 0 0 0 0 0 0 0 0 0 0 0 0 1 1 0 0 0 0 0 0 0 0 0 0 0 0 0 0 0 1 1 1 0 0 0 0 0 0 0 0 0 0
0 0 0 0 0 0 0 0 0 0 0 0 0 0 0 0 0 0 0 0 0 0 0 0 0 0 0 0 0 0 0 0 0 0 0 0 0 0 0 0 0 0 0
0 0 0 0 0 0 0 0 0 0 0 0 0 0 0 0 0 0 0 0 0 0 0 0 0 0 0 0 0 0 0 0 0 0 0 0 0 0 0 0 0 0 0
0 0 0 0 0 0 0 0 0 0 0 0 0 0 0 0 0 0 0 0 0 0 0 0 0 0 0 0 0 0 0 0 0 0 0 0 0 0 0 0 0 0 0
0 0 0 0 0 0 0 0 0 0 0 0 0 0 0 0 0 0 0 0 0 0 0 0 0 0 0 0 0 0 0 0 0 0 0 0 0 0 0 0 0 0 0
0 0 0 0 0 0 0 0 0 0 0 0 0 0 0 0 0 0 0 0 0 0 0 0 0 0 0 0 0 0 0 0 0 0 0 0 0 0 0 0 0 0 0
0 0 0 0 0 0 0 0 0 0 0 0 0 0 0 0 0 0 0 0 0 0 0 0 0 0 0 0 0 0 0 0 0 0 0 0 0 0 0 0 0 0 0
0 0 0 0 0 0 0 0 0 0 0 0 0 0 0 0 0 0 0 0 0 0 0 0 0 0 0 0 0 0 0 0 0 0 0 0 0 0 0 0 0 0 0
0 0 0 0 0 0 0 0 0 0 0 0 0 0 0 0 0 0 0 0 0 0 0 0 0 0 0 0 0 0 0 0 0 0 0 0 0 0 0 0 0 0 0
0 0 0 0 0 0 0 0 0 0 0 0 0 0 0 0 0 0 0 0 0 0 0 0 0 0 0 0 0 0 0 0 0 0 0 0 0 0 0 0 0 0 0
0 0 0 0 0 0 0 0 0 0 0 0 0 0 0 0 0 0 0 0 0 0 0 0 0 0 0 0 0 0 0 0 0 0 0 0 0 0 0 0 0 0 0
0 0 0 0 0 0 0 0 0 0 0 0 0 0 0 0 0 0 0 0 0 0 0 0 0 0 0 0 0 0 0 0 0 0 0 0 0 0 0 0 0 0 0
0 0 0 0 0 0 0 0 0 0 0 0 0 0 0 0 0 0 0 0 0 0 0 0 0 0 0 0 0 0 0 0 0 0 0 0 0 0 0 0 0 0 0
0 0 0 0 0 0 0 0 0 0 0 0 0 0 0 0 0 0 0 0 0 0 0 0 0 0 0 0 0 0 0 0 0 0 0 0 0 0 0 0 0 0 0
0 0 0 0 0 0 0 0 0 0 0 0 0 0 0 0 0 0 0 0 0 0 0 0 0 0 0 0 0 0 0 0 0 0 0 0 0 0 0 0 0 0 0
0 0 0 0 0 0 0 0 0 0 0 0 0 0 0 0 0 0 0 0 0 0 0 0 0 0 0 0 0 0 0 0 0 0 0 0 0 0 0 0 0 0 0
0 0 0 0 0 0 0 0 0 0 0 0 0 0 0 0 0 0 0 0 0 0 0 0 0 0 0 0 0 0 0 0 0 0 0 0 0 0 0 0 0 0 0
0 0 0 0 0 0 0 0 0 0 0 0 0 0 0 0 0 0 0 0 0 0 0 0 0 0 0 0 0 0 0 0 0 0 0 0 0 0 0 0 0 0 0
0 0 0 0 0 0 0 0 0 0 0 0 0 0 0 0 0 0 0 0 0 0 0 0 0 0 0 0 0 0 0 0 0 0 0 0 0 0 0 0 0 0 0
0 0 0 0 0 0 0 0 0 0 0 0 0 0 0 0 0 0 0 0 0 0 0 0 0 0 0 0 0 0 0 0 0 0 0 0 0 0 0 0 0 0 0
Wind_Speed
2 3 3 3 3 3 3 4 4 4 5 6 6 5 6 6 5 5 5 5 6 5 4 5 5 4 3 3 3 3 3 3 4 3 2 2 3 4 3 3 4 4 4
2 2 3 3 3 3 3 4 3 3 4 5 6 6 6 6 6 6 6 6 7 7 6 6 6 4 4 3 4 4 4 3 4 5 3 2 3 4 4 4 3 3 4
2 2 3 3 3 3 3 3 3 3 3 4 4 6 6 6 6 6 6 6 7 7 7 7 6 6 6 4 4 4 3 3 3 4 4 3 2 2 2 3 3 3 3
2 2 3 3 3 3 3 3 3 3 4 4 4 4 5 6 6 6 6 6 6 6 6 7 7 7 7 6 5 5 4 4 3 4 4 3 2 2 2 2 3 2 3
2 3 3 3 3 3 3 3 3 3 3 4 4 4 4 4 4 5 6 6 6 6 5 6 6 6 7 7 5 5 5 4 4 4 4 3 3 2 3 2 3 3 3
3 3 3 2 2 3 3 3 3 3 3 3 4 5 5 4 5 6 5 6 6 7 6 6 5 6 6 8 8 8 8 7 7 6 5 6 5 4 3 2 2 2 3
3 3 2 2 3 3 3 3 4 4 3 3 4 4 5 5 6 7 7 5 6 6 7 6 5 5 6 6 7 7 8 9 10 8 7 7 6 5 4 4 4 4 5
3 3 2 2 3 3 3 4 4 3 4 4 4 4 4 5 6 7 7 5 5 5 5 6 7 6 7 6 5 6 6 6 7 7 7 7 6 5 7 6 5 4 3
3 3 3 3 3 4 4 4 3 3 4 4 4 4 4 5 6 7 6 4 4 4 4 5 5 6 8 8 7 7 6 6 5 6 7 7 7 7 5 3 3 3 3
4 4 3 3 3 4 4 3 3 3 4 3 4 4 5 5 6 7 7 4 4 4 3 4 5 6 7 8 7 7 8 6 4 4 4 5 5 6 7 6 6 5 3
4 4 3 3 4 4 4 3 3 3 3 3 4 4 4 5 6 7 8 5 5 4 4 3 4 7 8 9 8 7 9 6 4 5 4 4 3 4 4 4 4 5 5
4 4 4 4 3 3 2 2 2 3 3 3 3 3 3 3 4 7 9 7 5 4 4 3 4 7 7 8 6 7 7 5 4 4 4 4 4 4 3 3 4 3 4
5 4 4 4 3 2 2 3 2 2 2 3 3 3 3 2 3 5 7 7 6 3 3 4 5 6 6 5 6 6 4 4 4 4 5 5 4 3 2 2 2 1 2
5 5 4 3 3 2 2 2 2 2 2 3 3 3 2 2 2 2 3 3 4 3 2 3 4 5 4 4 4 3 3 3 4 5 4 3 2 2 2 2 2 1 1
4 4 4 3 2 2 2 2 3 3 3 3 3 3 3 4 4 5 3 3 3 3 2 1 1 1 2 2 2 2 3 2 3 3 2 2 2 2 2 2 2 1 2
4 4 3 2 2 2 2 3 3 3 4 4 4 4 4 5 5 5 5 5 4 4 2 2 3 3 3 3 3 2 3 3 3 3 3 3 3 3 2 2 2 2 2
3 4 3 2 2 2 2 2 2 3 3 3 3 4 4 4 4 4 4 3 4 4 2 2 3 3 3 3 3 3 3 3 3 3 3 3 3 3 2 2 2 2 2
3 3 3 2 2 2 2 2 2 2 3 3 3 4 4 3 2 2 1 2 2 2 2 2 3 2 2 3 3 3 3 2 3 3 3 3 3 3 3 3 3 3 2
3 2 2 2 2 2 2 2 2 2 2 2 2 3 2 2 2 1 1 1 1 2 2 2 2 2 2 2 2 3 3 3 3 3 3 3 3 3 3 3 3 3 3
2 3 2 2 2 1 1 1 1 2 2 2 2 1 1 1 1 0 0 0 1 1 1 1 1 2 2 2 2 3 3 3 3 3 3 3 3 3 4 4 3 3 3
2 2 2 2 1 1 1 1 1 1 2 2 2 2 2 0 0 1 1 1 1 1 1 2 2 1 1 2 2 2 3 3 3 3 3 3 3 3 3 3 3 3 2
2 2 2 2 1 1 1 1 2 2 2 2 2 2 2 1 1 1 1 1 1 1 1 2 2 2 2 2 2 2 3 3 3 3 3 3 3 3 3 3 3 3 3
2 2 2 2 1 2 2 1 1 2 2 1 1 1 1 1 1 1 2 2 1 1 1 1 2 2 2 2 2 3 3 4 4 4 3 3 3 3 3 3 4 4 4
2 2 2 2 2 1 2 2 2 2 2 2 2 2 2 2 2 2 2 2 1 1 1 1 2 3 3 3 2 2 2 2 3 3 5 4 4 3 3 3 4 4 4
2 2 2 2 2 2 2 2 2 2 2 2 2 2 2 2 2 2 2 2 2 2 2 2 2 2 3 4 3 3 3 4 3 3 4 4 4 4 4 4 3 4 3
2 2 2 2 2 2 2 2 2 2 2 2 2 2 2 2 2 2 2 2 2 2 3 3 3 4 4 3 4 3 3 4 4 5 4 4 5 4 4 3 4 4 4
Wind_Direction
245 254 250 236 232 228 228 224 214 205 198 195 197 202 204 203 200 202 206 196 199 205 206 207 216 214 210 208 204 208 212 204 228 256 253 234 219 226 233 228 227 223 234
259 254 256 251 232 227 233 229 217 206 198 200 197 200 206 205 200 201 207 203 202 205 208 208 213 210 211 212 210 212 215 216 217 242 260 240 235 226 225 230 235 239 237
270 259 256 261 240 229 231 227 222 210 203 201 199 203 202 203 206 206 206 208 207 208 207 209 210 204 211 213 215 216 218 224 222 227 245 242 238 225 234 248 246 243 252
279 259 255 257 255 239 238 226 222 215 206 205 200 203 204 204 206 207 204 208 211 214 212 212 210 207 210 208 212 216 212 216 218 223 237 233 229 225 208 238 273 260 267
279 267 260 264 276 257 239 231 220 217 216 205 200 203 204 202 210 209 206 208 210 214 216 215 213 210 209 210 213 212 209 211 212 221 233 240 225 212 223 227 254 277 271
261 268 273 272 274 263 243 234 220 222 226 217 207 204 206 215 217 211 209 212 211 211 215 215 212 208 209 211 217 217 214 213 213 218 230 232 231 224 226 227 236 265 265
267 272 274 271 267 266 248 239 223 225 229 229 226 214 214 219 214 208 209 213 214 216 215 211 213 214 207 212 217 222 225 223 218 217 226 232 229 215 209 227 231 240 249
277 275 274 272 270 276 251 240 227 224 227 230 232 228 226 227 215 208 207 214 217 219 218 212 210 212 212 207 211 225 233 232 225 223 227 232 229 215 208 216 226 252 277
280 277 272 267 267 272 250 243 237 227 233 235 233 228 229 233 219 209 203 215 220 223 218 211 210 215 214 206 208 222 236 245 247 238 238 240 237 228 216 196 197 215 253
284 285 282 273 261 261 251 249 257 234 233 238 243 237 232 233 225 214 204 212 219 224 225 219 217 219 215 212 211 214 227 236 233 245 244 239 232 217 212 208 202 207 224
301 299 292 281 268 265 259 253 249 237 230 235 247 250 238 230 221 216 213 214 213 215 223 228 228 222 223 223 226 223 227 229 223 229 234 229 222 215 213 216 216 209 214
312 301 295 290 279 273 259 260 248 223 221 229 241 255 251 235 221 221 220 221 219 217 224 227 232 226 231 234 236 238 231 222 216 221 225 223 221 221 220 217 222 230 231
317 302 294 290 283 269 246 245 246 224 220 233 231 242 253 251 238 228 223 226 227 227 228 226 231 230 235 234 235 235 226 212 209 217 225 227 223 213 199 206 210 222 257
306 298 293 288 292 289 269 249 241 235 232 240 240 244 253 253 248 234 225 225 225 228 215 211 213 222 232 234 226 225 220 213 210 218 225 226 204 190 197 196 207 208 252
301 295 295 295 290 289 284 266 263 255 244 244 244 240 238 246 248 249 242 237 225 218 194 188 208 218 222 225 218 214 212 203 211 214 210 205 199 199 205 189 190 192 215
302 302 299 299 296 288 291 306 306 303 297 285 278 271 269 266 254 241 239 236 228 201 185 203 214 217 219 222 221 216 213 211 208 203 200 201 203 207 213 197 188 198 224
287 290 289 285 283 282 282 283 303 326 323 307 294 288 284 274 257 242 237 220 200 172 179 204 215 218 219 217 219 211 217 214 201 197 200 201 201 202 200 206 205 199 220
291 285 279 274 275 275 271 271 274 283 299 313 312 307 303 301 292 272 221 152 174 173 190 208 219 221 223 218 221 216 211 206 198 197 199 199 197 197 196 203 208 206 213
292 287 286 285 285 281 281 279 275 271 275 294 323 332 343 347 353 9 83 131 186 207 211 218 223 224 226 223 221 217 204 207 207 201 202 199 196 194 201 203 207 205 198
290 295 296 286 287 293 293 285 278 281 290 295 296 306 336 17 28 344 14 39 224 237 242 246 245 237 229 223 219 213 202 202 203 207 209 205 200 199 201 197 198 201 207
299 301 300 287 273 271 273 270 271 271 276 281 282 291 314 296 246 256 257 252 245 246 249 254 256 249 242 232 225 219 208 206 203 205 207 204 198 201 200 194 197 196 189
298 298 297 291 294 294 287 280 277 271 272 279 296 305 305 320 268 261 263 269 272 260 249 242 250 251 240 234 229 227 216 210 205 201 201 199 198 197 192 192 193 186 180
304 305 306 306 305 305 307 306 299 292 292 296 291 287 276 274 267 264 265 271 274 274 274 256 256 267 269 260 245 231 224 221 211 198 193 193 192 193 191 193 193 190 190
314 307 301 300 304 298 296 299 301 300 298 293 285 279 276 276 276 276 281 286 289 291 291 280 268 268 273 275 266 250 236 227 206 196 188 188 191 192 190 193 194 191 190
307 302 296 291 291 291 292 295 297 296 292 289 287 287 287 290 291 289 289 292 297 296 296 289 277 268 266 266 266 257 245 238 222 196 182 181 185 189 189 192 191 184 183
311 297 292 292 288 284 283 287 291 293 290 290 291 290 289 287 284 283 288 290 292 291 288 283 278 275 271 267 262 253 244 233 214 200 187 180 183 189 185 185 184 183 180